[Iaude] MPEC L57: 2022 LT1 [a=2.21,e=0.58,i=8.5,H=23.8]

mpec at marsden.cfa.harvard.edu mpec at marsden.cfa.harvard.edu
Tue Jun 7 01:49:44 EDT 2022


M.P.E.C. 2022-L57                                  Issued 2022 June 7, 05:48 UT

     The Minor Planet Electronic Circulars contain information on unusual
         minor planets and routine data on comets.  They are published
    on behalf of Division F of the International Astronomical Union by the
          Minor Planet Center, Smithsonian Astrophysical Observatory,
                          Cambridge, MA 02138, U.S.A.

             Prepared using the Tamkin Foundation Computer Network

                              MPC at CFA.HARVARD.EDU
            URL https://www.minorplanetcenter.net/    ISSN 1523-6714

                                    2022 LT1                                    


Observations:
     K22L01T* C2022 06 05.28154613 58 00.009+02 27 49.43         21.09wUEL057F52
     K22L01T  C2022 06 05.29304113 57 56.244+02 27 39.70         21.75wUEL057F52
     K22L01T  C2022 06 05.30470013 57 52.422+02 27 29.58         21.28wUEL057F52
     K22L01T  C2022 06 05.39102813 57 24.154+02 26 15.01         21.36GVEL057F52
     K22L01T  C2022 06 05.39165813 57 23.965+02 26 14.40         21.50GVEL057F52
     K22L01T KC2022 06 06.18070413 53 19.190+02 13 59.60               VEL057I52
     K22L01T KC2022 06 06.18244713 53 18.600+02 13 57.40         21.41GVEL057I52
     K22L01T KC2022 06 06.18419213 53 17.970+02 13 54.90         20.47GVEL057I52
     K22L01T KC2022 06 06.18593613 53 17.390+02 13 54.30         21.56GVEL057I52
     K22L01T ^C2022 06 06.28889913 52 44.705+02 12 27.34         21.40GVEL057568
     K22L01T ^C2022 06 06.29294913 52 43.270+02 12 23.35         21.07GVEL057568
     K22L01T |C2022 06 06.96285 13 49 03.18 +02 01 54.2          21.2 GVEL057807
     K22L01T |C2022 06 06.97046 13 49 00.42 +02 01 45.4          21.2 GVEL057807
     K22L01T |C2022 06 06.97426 13 48 59.04 +02 01 42.1          21.4 GVEL057807
     K22L01T KC2022 06 07.18883413 47 43.080+01 56 38.69         21.49GVEL057I52
     K22L01T KC2022 06 07.19197313 47 41.906+01 56 36.46         19.90GVEL057I52
     K22L01T KC2022 06 07.19511113 47 40.715+01 56 31.96         20.97GVEL057I52
     K22L01T KC2022 06 07.19825213 47 39.566+01 56 28.75         21.30GVEL057I52

Observer details:
568 Mauna Kea.  Observer Y. Ramanjooloo.  Measurers R. Weryk, Y. Ramanjooloo,
    R. Wainscoat.  2.24-m University of Hawaii reflector + CCD.
807 Cerro Tololo Observatory, La Serena.  Observers T. Linder, R. Holmes, L.
    Horn.  1.00-m f/10.0 astrograph + CCD.
F52 Pan-STARRS 2, Haleakala.  Observers J. Bulger, T. Lowe, A. Schultz, I.
    Smith, K. Chambers, T. Dukes.  Measurers K. Chambers, S. Chastel, T. de
    Boer, J. Fairlamb, H. Gao, M. Huber, C.-C. Lin, E. Magnier, Y.
    Ramanjooloo, R. Wainscoat, R. Weryk.  1.8-m Ritchey-Chretien + CCD.
I52 Steward Observatory, Mt. Lemmon Station.  Observer G. J. Leonard.
    Measurers E. J. Christensen, D. Fay, J. B. Fazekas, D. C. Fuls, A. R.
    Gibbs, A. D. Grauer, H. Groeller, J. K. Hogan, R. A. Kowalski, S. M.
    Larson, G. J. Leonard, D. Rankin, R. L. Seaman, A. Serrano, F. C. Shelly,
    K. W. Wierzchos.  1.0-m prime focus + CCD.

Orbital elements:
2022 LT1                                                 Earth MOID = 0.0096 AU
Epoch 2022 Aug. 9.0 TT = JDT 2459800.5                  Veres                   
M   5.30111              (2000.0)            P               Q                  
n   0.30070255     Peri.  226.78923     +0.59709147     +0.78868156             
a   2.2065375      Node    80.44446     -0.68617255     +0.59675749             
e   0.5846753      Incl.    8.54374     -0.41551055     +0.14785767             
P   3.28           H   23.84          G   0.15           U   8                  
Residuals in seconds of arc
220605 F52  0.1+  0.0     220606 I52  0.0   0.3-    220606 807  0.1-  0.5-
220605 F52  0.0   0.1+    220606 I52 (0.4-  1.1-)   220606 807  0.2-  0.2+
220605 F52  0.1-  0.0     220606 I52  0.1-  0.1-    220607 I52  0.4+  0.4-
220605 F52  0.1-  0.2+    220606 568  0.0   0.0     220607 I52  0.2+  0.8+
220605 F52  0.1+  0.1+    220606 568  0.2-  0.0     220607 I52  0.3-  0.2-
220606 I52  0.1-  0.2+    220606 807  0.2+  0.3+    220607 I52  0.1-  0.0

Ephemeris:
2022 LT1                 a,e,i = 2.21, 0.58, 9                   q = 0.9164
Date    TT    R. A. (2000) Decl.     Delta      r    Elong.  Phase     V
2022 05 08    15 10 43.8 +02 18 52   0.3366  1.3312   160.5    14.6    22.9
...
2022 05 23    14 44 30.2 +03 34 37   0.2225  1.2101   150.0    24.7    22.1
...
2022 05 31    14 20 36.0 +03 19 52   0.1705  1.1489   139.5    34.9    21.7
...
2022 06 06    13 54 17.2 +02 17 25   0.1350  1.1054   129.4    45.1    21.4
2022 06 07    13 48 48.5 +02 00 40   0.1294  1.0984   127.5    47.1    21.4
2022 06 08    13 42 54.9 +01 41 37   0.1238  1.0914   125.5    49.2    21.3
...
2022 06 14    12 55 16.6 -01 15 05   0.09291 1.0517   110.5    64.8    21.1
...
2022 06 22    10 50 49.0 -09 00 53   0.06441 1.0046    77.8    98.6    21.5
...
2022 07 07    06 08 06.5 -13 21 32   0.1002  0.9403    38.5   137.7    25.3

M. P. C. Staff               (C) Copyright 2022 MPC           M.P.E.C. 2022-L57




More information about the Iaude mailing list